Year,Month,Day,Hour,Minute,Value (Times are PST for temperature in C)
2017,01,23,00,00,5.50
2017,01,23,00,01,5.50
2017,01,23,00,02,5.50
2017,01,23,00,03,5.50
2017,01,23,00,04,5.50
2017,01,23,00,05,5.50
2017,01,23,00,06,5.50
2017,01,23,00,07,5.50
2017,01,23,00,08,5.40
2017,01,23,00,09,5.40
2017,01,23,00,10,5.40
2017,01,23,00,11,5.40
2017,01,23,00,12,5.40
2017,01,23,00,13,5.40
2017,01,23,00,14,5.40
2017,01,23,00,15,5.40
2017,01,23,00,16,5.40
2017,01,23,00,17,5.40
2017,01,23,00,18,5.40
2017,01,23,00,19,5.40
2017,01,23,00,20,5.40
2017,01,23,00,21,5.40
2017,01,23,00,22,5.40
2017,01,23,00,23,5.40
2017,01,23,00,24,5.40
2017,01,23,00,25,5.40
2017,01,23,00,26,5.40
2017,01,23,00,27,5.40
2017,01,23,00,28,5.40
2017,01,23,00,29,5.40
2017,01,23,00,30,5.40
2017,01,23,00,31,5.40
2017,01,23,00,32,5.40
2017,01,23,00,33,5.30
2017,01,23,00,34,5.30
2017,01,23,00,35,5.30
2017,01,23,00,36,5.30
2017,01,23,00,37,5.30
2017,01,23,00,38,5.30
2017,01,23,00,39,5.30
2017,01,23,00,40,5.30
2017,01,23,00,41,5.30
2017,01,23,00,42,5.30
2017,01,23,00,43,5.30
2017,01,23,00,44,5.30
2017,01,23,00,45,5.30
2017,01,23,00,46,5.30
2017,01,23,00,47,5.30
2017,01,23,00,48,5.30
2017,01,23,00,49,5.30
2017,01,23,00,50,5.30
2017,01,23,00,51,5.20
2017,01,23,00,52,5.20
2017,01,23,00,53,5.20
2017,01,23,00,54,5.20
2017,01,23,00,55,5.20
2017,01,23,00,56,5.20
2017,01,23,00,57,5.20
2017,01,23,00,58,5.20
2017,01,23,00,59,5.20
2017,01,23,01,00,5.20
2017,01,23,01,01,5.20
2017,01,23,01,02,5.20
2017,01,23,01,03,5.20
2017,01,23,01,04,5.20
2017,01,23,01,05,5.20
2017,01,23,01,06,5.20
2017,01,23,01,07,5.20
2017,01,23,01,08,5.20
2017,01,23,01,09,5.20
2017,01,23,01,10,5.20
2017,01,23,01,11,5.20
2017,01,23,01,12,5.20
2017,01,23,01,13,5.20
2017,01,23,01,14,5.20
2017,01,23,01,15,5.20
2017,01,23,01,16,5.20
2017,01,23,01,17,5.20
2017,01,23,01,18,5.20
2017,01,23,01,19,5.20
2017,01,23,01,20,5.20
2017,01,23,01,21,5.20
2017,01,23,01,22,5.20
2017,01,23,01,23,5.20
2017,01,23,01,24,5.20
2017,01,23,01,25,5.20
2017,01,23,01,26,5.20
2017,01,23,01,27,5.20
2017,01,23,01,28,5.20
2017,01,23,01,29,5.20
2017,01,23,01,30,5.20
2017,01,23,01,31,5.20
2017,01,23,01,32,5.20
2017,01,23,01,33,5.20
2017,01,23,01,34,5.20
2017,01,23,01,35,5.20
2017,01,23,01,36,5.20
2017,01,23,01,37,5.20
2017,01,23,01,38,5.20
2017,01,23,01,39,5.20
2017,01,23,01,40,5.20
2017,01,23,01,41,5.20
2017,01,23,01,42,5.20
2017,01,23,01,43,5.20
2017,01,23,01,44,5.20
2017,01,23,01,45,5.20
2017,01,23,01,46,5.20
2017,01,23,01,47,5.20
2017,01,23,01,48,5.20
2017,01,23,01,49,5.20
2017,01,23,01,50,5.20
2017,01,23,01,51,5.20
2017,01,23,01,52,5.20
2017,01,23,01,53,5.20
2017,01,23,01,54,5.20
2017,01,23,01,55,5.10
2017,01,23,01,56,5.10
2017,01,23,01,57,5.10
2017,01,23,01,58,5.10
2017,01,23,01,59,5.10
2017,01,23,02,00,5.10
2017,01,23,02,01,5.10
2017,01,23,02,02,5.10
2017,01,23,02,03,5.10
2017,01,23,02,04,5.10
2017,01,23,02,05,5.10
2017,01,23,02,06,5.10
2017,01,23,02,07,5.10
2017,01,23,02,08,5.10
2017,01,23,02,09,5.10
2017,01,23,02,10,5.10
2017,01,23,02,11,5.10
2017,01,23,02,12,5.00
2017,01,23,02,13,5.00
2017,01,23,02,14,5.10
2017,01,23,02,15,5.10
2017,01,23,02,16,5.10
2017,01,23,02,17,5.10
2017,01,23,02,18,5.10
2017,01,23,02,19,5.10
2017,01,23,02,20,5.10
2017,01,23,02,21,5.10
2017,01,23,02,22,5.10
2017,01,23,02,23,5.10
2017,01,23,02,24,5.10
2017,01,23,02,25,5.10
2017,01,23,02,26,5.10
2017,01,23,02,27,5.10
2017,01,23,02,28,5.10
2017,01,23,02,29,5.10
2017,01,23,02,30,5.10
2017,01,23,02,31,5.10
2017,01,23,02,32,5.10
2017,01,23,02,33,5.10
2017,01,23,02,34,5.10
2017,01,23,02,35,5.10
2017,01,23,02,36,5.10
2017,01,23,02,37,5.10
2017,01,23,02,38,5.10
2017,01,23,02,39,5.10
2017,01,23,02,40,5.10
2017,01,23,02,41,5.10
2017,01,23,02,42,5.10
2017,01,23,02,43,5.10
2017,01,23,02,44,5.10
2017,01,23,02,45,5.10
2017,01,23,02,46,5.10
2017,01,23,02,47,5.00
2017,01,23,02,48,5.00
2017,01,23,02,49,5.00
2017,01,23,02,50,5.00
2017,01,23,02,51,5.00
2017,01,23,02,52,5.00
2017,01,23,02,53,5.00
2017,01,23,02,54,5.00
2017,01,23,02,55,5.10
2017,01,23,02,56,5.10
2017,01,23,02,57,5.10
2017,01,23,02,58,5.10
2017,01,23,02,59,5.10
2017,01,23,03,00,5.00
2017,01,23,03,01,5.00
2017,01,23,03,02,5.00
2017,01,23,03,03,5.00
2017,01,23,03,04,5.00
2017,01,23,03,05,5.00
2017,01,23,03,06,4.90
2017,01,23,03,07,4.90
2017,01,23,03,08,4.90
2017,01,23,03,09,4.90
2017,01,23,03,10,4.90
2017,01,23,03,11,4.90
2017,01,23,03,12,4.90
2017,01,23,03,13,4.90
2017,01,23,03,14,4.90
2017,01,23,03,15,4.90
2017,01,23,03,16,4.90
2017,01,23,03,17,4.90
2017,01,23,03,18,4.90
2017,01,23,03,19,4.90
2017,01,23,03,20,4.90
2017,01,23,03,21,4.90
2017,01,23,03,22,4.90
2017,01,23,03,23,4.90
2017,01,23,03,24,4.90
2017,01,23,03,25,4.90
2017,01,23,03,26,4.90
2017,01,23,03,27,4.90
2017,01,23,03,28,4.90
2017,01,23,03,29,4.90
2017,01,23,03,30,4.90
2017,01,23,03,31,4.90
2017,01,23,03,32,4.90
2017,01,23,03,33,4.80
2017,01,23,03,34,4.80
2017,01,23,03,35,4.80
2017,01,23,03,36,4.80
2017,01,23,03,37,4.80
2017,01,23,03,38,4.80
2017,01,23,03,39,4.80
2017,01,23,03,40,4.80
2017,01,23,03,41,4.80
2017,01,23,03,42,4.80
2017,01,23,03,43,4.80
2017,01,23,03,44,4.80
2017,01,23,03,45,4.70
2017,01,23,03,46,4.70
2017,01,23,03,47,4.70
2017,01,23,03,48,4.70
2017,01,23,03,49,4.70
2017,01,23,03,50,4.70
2017,01,23,03,51,4.70
2017,01,23,03,52,4.70
2017,01,23,03,53,4.70
2017,01,23,03,54,4.70
2017,01,23,03,55,4.70
2017,01,23,03,56,4.70
2017,01,23,03,57,4.70
2017,01,23,03,58,4.70
2017,01,23,03,59,4.70
2017,01,23,04,00,4.60
2017,01,23,04,01,4.60
2017,01,23,04,02,4.60
2017,01,23,04,03,4.60
2017,01,23,04,04,4.60
2017,01,23,04,05,4.60
2017,01,23,04,06,4.50
2017,01,23,04,07,4.50
2017,01,23,04,08,4.50
2017,01,23,04,09,4.40
2017,01,23,04,10,4.40
2017,01,23,04,11,4.40
2017,01,23,04,12,4.40
2017,01,23,04,13,4.30
2017,01,23,04,14,4.30
2017,01,23,04,15,4.30
2017,01,23,04,16,4.30
2017,01,23,04,17,4.30
2017,01,23,04,18,4.20
2017,01,23,04,19,4.20
2017,01,23,04,20,4.20
2017,01,23,04,21,4.20
2017,01,23,04,22,4.20
2017,01,23,04,23,4.20
2017,01,23,04,24,4.20
2017,01,23,04,25,4.10
2017,01,23,04,26,4.10
2017,01,23,04,27,4.10
2017,01,23,04,28,4.10
2017,01,23,04,29,4.10
2017,01,23,04,30,4.10
2017,01,23,04,31,4.00
2017,01,23,04,32,4.00
2017,01,23,04,33,4.00
2017,01,23,04,34,4.00
2017,01,23,04,35,3.90
2017,01,23,04,36,3.90
2017,01,23,04,37,3.90
2017,01,23,04,38,3.90
2017,01,23,04,39,3.90
2017,01,23,04,40,3.90
2017,01,23,04,41,3.90
2017,01,23,04,42,3.90
2017,01,23,04,43,3.80
2017,01,23,04,44,3.80
2017,01,23,04,45,3.80
2017,01,23,04,46,3.80
2017,01,23,04,47,3.80
2017,01,23,04,48,3.80
2017,01,23,04,49,3.80
2017,01,23,04,50,3.70
2017,01,23,04,51,3.70
2017,01,23,04,52,3.70
2017,01,23,04,53,3.70
2017,01,23,04,54,3.70
2017,01,23,04,55,3.70
2017,01,23,04,56,3.70
2017,01,23,04,57,3.70
2017,01,23,04,58,3.70
2017,01,23,04,59,3.60
2017,01,23,05,00,3.60
2017,01,23,05,01,3.60
2017,01,23,05,02,3.60
2017,01,23,05,03,3.60
2017,01,23,05,04,3.50
2017,01,23,05,05,3.50
2017,01,23,05,06,3.50
2017,01,23,05,07,3.50
2017,01,23,05,08,3.50
2017,01,23,05,09,3.50
2017,01,23,05,10,3.50
2017,01,23,05,11,3.40
2017,01,23,05,12,3.40
2017,01,23,05,13,3.40
2017,01,23,05,14,3.40
2017,01,23,05,15,3.40
2017,01,23,05,16,3.40
2017,01,23,05,17,3.40
2017,01,23,05,18,3.30
2017,01,23,05,19,3.30
2017,01,23,05,20,3.30
2017,01,23,05,21,3.30
2017,01,23,05,22,3.30
2017,01,23,05,23,3.30
2017,01,23,05,24,3.20
2017,01,23,05,25,3.20
2017,01,23,05,26,3.20
2017,01,23,05,27,3.20
2017,01,23,05,28,3.20
2017,01,23,05,29,3.20
2017,01,23,05,30,3.10
2017,01,23,05,31,3.10
2017,01,23,05,32,3.10
2017,01,23,05,33,3.10
2017,01,23,05,34,3.10
2017,01,23,05,35,3.10
2017,01,23,05,36,3.10
2017,01,23,05,37,3.00
2017,01,23,05,38,3.00
2017,01,23,05,39,3.00
2017,01,23,05,40,2.90
2017,01,23,05,41,2.90
2017,01,23,05,42,2.90
2017,01,23,05,43,2.80
2017,01,23,05,44,2.80
2017,01,23,05,45,2.80
2017,01,23,05,46,2.80
2017,01,23,05,47,2.80
2017,01,23,05,48,2.80
2017,01,23,05,49,2.80
2017,01,23,05,50,2.80
2017,01,23,05,51,2.80
2017,01,23,05,52,2.70
2017,01,23,05,53,2.70
2017,01,23,05,54,2.70
2017,01,23,05,55,2.70
2017,01,23,05,56,2.70
2017,01,23,05,57,2.70
2017,01,23,05,58,2.70
2017,01,23,05,59,2.60
2017,01,23,06,00,2.60
2017,01,23,06,01,2.60
2017,01,23,06,02,2.60
2017,01,23,06,03,2.60
2017,01,23,06,04,2.60
2017,01,23,06,05,2.50
2017,01,23,06,06,2.50
2017,01,23,06,07,2.50
2017,01,23,06,08,2.50
2017,01,23,06,09,2.40
2017,01,23,06,10,2.40
2017,01,23,06,11,2.40
2017,01,23,06,12,2.40
2017,01,23,06,13,2.40
2017,01,23,06,14,2.40
2017,01,23,06,15,2.40
2017,01,23,06,16,2.40
2017,01,23,06,17,2.30
2017,01,23,06,18,2.30
2017,01,23,06,19,2.30
2017,01,23,06,20,2.30
2017,01,23,06,21,2.30
2017,01,23,06,22,2.30
2017,01,23,06,23,2.30
2017,01,23,06,24,2.30
2017,01,23,06,25,2.30
2017,01,23,06,26,2.20
2017,01,23,06,27,2.20
2017,01,23,06,28,2.20
2017,01,23,06,29,2.20
2017,01,23,06,30,2.20
2017,01,23,06,31,2.20
2017,01,23,06,32,2.20
2017,01,23,06,33,2.20
2017,01,23,06,34,2.20
2017,01,23,06,35,2.20
2017,01,23,06,36,2.10
2017,01,23,06,37,2.10
2017,01,23,06,38,2.10
2017,01,23,06,39,2.10
2017,01,23,06,40,2.10
2017,01,23,06,41,2.10
2017,01,23,06,42,2.10
2017,01,23,06,43,2.10
2017,01,23,06,44,2.10
2017,01,23,06,45,2.10
2017,01,23,06,46,2.10
2017,01,23,06,47,2.10
2017,01,23,06,48,2.00
2017,01,23,06,49,2.00
2017,01,23,06,50,2.00
2017,01,23,06,51,2.00
2017,01,23,06,52,2.00
2017,01,23,06,53,1.90
2017,01,23,06,54,1.90
2017,01,23,06,55,1.90
2017,01,23,06,56,1.90
2017,01,23,06,57,1.90
2017,01,23,06,58,1.90
2017,01,23,06,59,1.90
2017,01,23,07,00,1.90
2017,01,23,07,01,1.90
2017,01,23,07,02,1.80
2017,01,23,07,03,1.80
2017,01,23,07,04,1.80
2017,01,23,07,05,1.80
2017,01,23,07,06,1.80
2017,01,23,07,07,1.80
2017,01,23,07,08,1.80
2017,01,23,07,09,1.80
2017,01,23,07,10,1.80
2017,01,23,07,11,1.70
2017,01,23,07,12,1.70
2017,01,23,07,13,1.70
2017,01,23,07,14,1.70
2017,01,23,07,15,1.60
2017,01,23,07,16,1.60
2017,01,23,07,17,1.60
2017,01,23,07,18,1.60
2017,01,23,07,19,1.60
2017,01,23,07,20,1.60
2017,01,23,07,21,1.50
2017,01,23,07,22,1.50
2017,01,23,07,23,1.50
2017,01,23,07,24,1.50
2017,01,23,07,25,1.50
2017,01,23,07,26,1.50
2017,01,23,07,27,1.50
2017,01,23,07,28,1.50
2017,01,23,07,29,1.50
2017,01,23,07,30,1.40
2017,01,23,07,31,1.50
2017,01,23,07,32,1.40
2017,01,23,07,33,1.40
2017,01,23,07,34,1.40
2017,01,23,07,35,1.40
2017,01,23,07,36,1.40
2017,01,23,07,37,1.40
2017,01,23,07,38,1.40
2017,01,23,07,39,1.40
2017,01,23,07,40,1.40
2017,01,23,07,41,1.40
2017,01,23,07,42,1.40
2017,01,23,07,43,1.30
2017,01,23,07,44,1.30
2017,01,23,07,45,1.30
2017,01,23,07,46,1.30
2017,01,23,07,47,1.30
2017,01,23,07,48,1.30
2017,01,23,07,49,1.30
2017,01,23,07,50,1.30
2017,01,23,07,51,1.30
2017,01,23,07,52,1.30
2017,01,23,07,53,1.30
2017,01,23,07,54,1.30
2017,01,23,07,55,1.30
2017,01,23,07,56,1.30
2017,01,23,07,57,1.30
2017,01,23,07,58,1.30
2017,01,23,07,59,1.30
2017,01,23,08,00,1.30
2017,01,23,08,01,1.30
2017,01,23,08,02,1.30
2017,01,23,08,03,1.20
2017,01,23,08,04,1.20
2017,01,23,08,05,1.20
2017,01,23,08,06,1.20
2017,01,23,08,07,1.20
2017,01,23,08,08,1.20
2017,01,23,08,09,1.20
2017,01,23,08,10,1.10
2017,01,23,08,11,1.10
2017,01,23,08,12,1.10
2017,01,23,08,13,1.10
2017,01,23,08,14,1.10
2017,01,23,08,15,1.00
2017,01,23,08,16,1.00
2017,01,23,08,17,1.00
2017,01,23,08,18,1.00
2017,01,23,08,19,1.00
2017,01,23,08,20,1.00
2017,01,23,08,21,1.00
2017,01,23,08,22,0.90
2017,01,23,08,23,0.90
2017,01,23,08,24,0.90
2017,01,23,08,25,0.90
2017,01,23,08,26,0.90
2017,01,23,08,27,1.00
2017,01,23,08,28,1.00
2017,01,23,08,29,1.10
2017,01,23,08,30,1.10
2017,01,23,08,31,1.20
2017,01,23,08,32,1.20
2017,01,23,08,33,1.20
2017,01,23,08,34,1.20
2017,01,23,08,35,1.30
2017,01,23,08,36,1.30
2017,01,23,08,37,1.30
2017,01,23,08,38,1.30
2017,01,23,08,39,1.30
2017,01,23,08,40,1.40
2017,01,23,08,41,1.50
2017,01,23,08,42,1.50
2017,01,23,08,43,1.50
2017,01,23,08,44,1.60
2017,01,23,08,45,1.70
2017,01,23,08,46,1.70
2017,01,23,08,47,1.70
2017,01,23,08,48,1.80
2017,01,23,08,49,1.80
2017,01,23,08,50,1.80
2017,01,23,08,51,1.80
2017,01,23,08,52,1.80
2017,01,23,08,53,1.80
2017,01,23,08,54,1.90
2017,01,23,08,55,1.90
2017,01,23,08,56,1.90
2017,01,23,08,57,2.00
2017,01,23,08,58,2.00
2017,01,23,08,59,2.00
2017,01,23,09,00,2.10
2017,01,23,09,01,2.10
2017,01,23,09,02,2.10
2017,01,23,09,03,2.10
2017,01,23,09,04,2.10
2017,01,23,09,05,2.20
2017,01,23,09,06,2.20
2017,01,23,09,07,2.20
2017,01,23,09,08,2.20
2017,01,23,09,09,2.20
2017,01,23,09,10,2.20
2017,01,23,09,11,2.30
2017,01,23,09,12,2.30
2017,01,23,09,13,2.30
2017,01,23,09,14,2.30
2017,01,23,09,15,2.30
2017,01,23,09,16,2.30
2017,01,23,09,17,2.30
2017,01,23,09,18,2.30
2017,01,23,09,19,2.30
2017,01,23,09,20,2.30
2017,01,23,09,21,2.30
2017,01,23,09,22,2.30
2017,01,23,09,23,2.40
2017,01,23,09,24,2.40
2017,01,23,09,25,2.40
2017,01,23,09,26,2.40
2017,01,23,09,27,2.40
2017,01,23,09,28,2.40
2017,01,23,09,29,2.40
2017,01,23,09,30,2.40
2017,01,23,09,31,2.50
2017,01,23,09,32,2.50
2017,01,23,09,33,2.60
2017,01,23,09,34,2.60
2017,01,23,09,35,2.60
2017,01,23,09,36,2.70
2017,01,23,09,37,2.70
2017,01,23,09,38,2.80
2017,01,23,09,39,2.80
2017,01,23,09,40,2.80
2017,01,23,09,41,2.90
2017,01,23,09,42,2.90
2017,01,23,09,43,2.90
2017,01,23,09,44,3.00
2017,01,23,09,45,3.00
2017,01,23,09,46,3.00
2017,01,23,09,47,3.10
2017,01,23,09,48,3.10
2017,01,23,09,49,3.20
2017,01,23,09,50,3.20
2017,01,23,09,51,3.30
2017,01,23,09,52,3.30
2017,01,23,09,53,3.30
2017,01,23,09,54,3.30
2017,01,23,09,55,3.30
2017,01,23,09,56,3.30
2017,01,23,09,57,3.40
2017,01,23,09,58,3.40
2017,01,23,09,59,3.40
2017,01,23,10,00,3.40
2017,01,23,10,01,3.40
2017,01,23,10,02,3.30
2017,01,23,10,03,3.30
2017,01,23,10,04,3.30
2017,01,23,10,05,3.30
2017,01,23,10,06,3.40
2017,01,23,10,07,3.40
2017,01,23,10,08,3.40
2017,01,23,10,09,3.40
2017,01,23,10,10,3.40
2017,01,23,10,11,3.40
2017,01,23,10,12,3.40
2017,01,23,10,13,3.30
2017,01,23,10,14,3.30
2017,01,23,10,15,3.30
2017,01,23,10,16,3.30
2017,01,23,10,17,3.30
2017,01,23,10,18,3.30
2017,01,23,10,19,3.30
2017,01,23,10,20,3.30
2017,01,23,10,21,3.30
2017,01,23,10,22,3.30
2017,01,23,10,23,3.30
2017,01,23,10,24,3.30
2017,01,23,10,25,3.30
2017,01,23,10,26,3.30
2017,01,23,10,27,3.30
2017,01,23,10,28,3.30
2017,01,23,10,29,3.40
2017,01,23,10,30,3.40
2017,01,23,10,31,3.40
2017,01,23,10,32,3.40
2017,01,23,10,33,3.50
2017,01,23,10,34,3.50
2017,01,23,10,35,3.60
2017,01,23,10,36,3.60
2017,01,23,10,37,3.70
2017,01,23,10,38,3.70
2017,01,23,10,39,3.80
2017,01,23,10,40,3.80
2017,01,23,10,41,3.80
2017,01,23,10,42,3.90
2017,01,23,10,43,3.90
2017,01,23,10,44,3.90
2017,01,23,10,45,3.90
2017,01,23,10,46,3.90
2017,01,23,10,47,4.00
2017,01,23,10,48,4.00
2017,01,23,10,49,4.00
2017,01,23,10,50,4.10
2017,01,23,10,51,4.10
2017,01,23,10,52,4.10
2017,01,23,10,53,4.20
2017,01,23,10,54,4.20
2017,01,23,10,55,4.20
2017,01,23,10,56,4.20
2017,01,23,10,57,4.30
2017,01,23,10,58,4.30
2017,01,23,10,59,4.30
2017,01,23,11,00,4.40
2017,01,23,11,01,4.40
2017,01,23,11,02,4.40
2017,01,23,11,03,4.50
2017,01,23,11,04,4.50
2017,01,23,11,05,4.50
2017,01,23,11,06,4.60
2017,01,23,11,07,4.60
2017,01,23,11,08,4.70
2017,01,23,11,09,4.70
2017,01,23,11,10,4.80
2017,01,23,11,11,4.80
2017,01,23,11,12,4.80
2017,01,23,11,13,4.90
2017,01,23,11,14,4.90
2017,01,23,11,15,4.90
2017,01,23,11,16,5.00
2017,01,23,11,17,5.00
2017,01,23,11,18,5.00
2017,01,23,11,19,5.10
2017,01,23,11,20,5.10
2017,01,23,11,21,5.10
2017,01,23,11,22,5.10
2017,01,23,11,23,5.20
2017,01,23,11,24,5.20
2017,01,23,11,25,5.20
2017,01,23,11,26,5.20
2017,01,23,11,27,5.30
2017,01,23,11,28,5.30
2017,01,23,11,29,5.40
2017,01,23,11,30,5.40
2017,01,23,11,31,5.40
2017,01,23,11,32,5.50
2017,01,23,11,33,5.50
2017,01,23,11,34,5.60
2017,01,23,11,35,5.70
2017,01,23,11,36,5.70
2017,01,23,11,37,5.80
2017,01,23,11,38,5.80
2017,01,23,11,39,5.90
2017,01,23,11,40,5.90
2017,01,23,11,41,5.90
2017,01,23,11,42,6.00
2017,01,23,11,43,6.00
2017,01,23,11,44,6.00
2017,01,23,11,45,6.10
2017,01,23,11,46,6.10
2017,01,23,11,47,6.20
2017,01,23,11,48,6.20
2017,01,23,11,49,6.20
2017,01,23,11,50,6.30
2017,01,23,11,51,6.30
2017,01,23,11,52,6.30
2017,01,23,11,53,6.30
2017,01,23,11,54,6.40
2017,01,23,11,55,6.50
2017,01,23,11,56,6.60
2017,01,23,11,57,6.60
2017,01,23,11,58,6.60
2017,01,23,11,59,6.60
2017,01,23,12,00,6.60
2017,01,23,12,01,6.60
2017,01,23,12,02,6.60
2017,01,23,12,03,6.60
2017,01,23,12,04,6.60
2017,01,23,12,05,6.60
2017,01,23,12,06,6.60
2017,01,23,12,07,6.60
2017,01,23,12,08,6.60
2017,01,23,12,09,6.60
2017,01,23,12,10,6.50
2017,01,23,12,11,6.50
2017,01,23,12,12,6.50
2017,01,23,12,13,6.50
2017,01,23,12,14,6.50
2017,01,23,12,15,6.50
2017,01,23,12,16,6.60
2017,01,23,12,17,6.60
2017,01,23,12,18,6.70
2017,01,23,12,19,6.70
2017,01,23,12,20,6.70
2017,01,23,12,21,6.70
2017,01,23,12,22,6.80
2017,01,23,12,23,6.80
2017,01,23,12,24,6.90
2017,01,23,12,25,7.00
2017,01,23,12,26,6.90
2017,01,23,12,27,6.90
2017,01,23,12,28,7.00
2017,01,23,12,29,7.00
2017,01,23,12,30,7.10
2017,01,23,12,31,7.10
2017,01,23,12,32,7.10
2017,01,23,12,33,7.10
2017,01,23,12,34,7.20
2017,01,23,12,35,7.20
2017,01,23,12,36,7.20
2017,01,23,12,37,7.20
2017,01,23,12,38,7.20
2017,01,23,12,39,7.10
2017,01,23,12,40,7.20
2017,01,23,12,41,7.20
2017,01,23,12,42,7.20
2017,01,23,12,43,7.30
2017,01,23,12,44,7.30
2017,01,23,12,45,7.30
2017,01,23,12,46,7.30
2017,01,23,12,47,7.30
2017,01,23,12,48,7.40
2017,01,23,12,49,7.40
2017,01,23,12,50,7.40
2017,01,23,12,51,7.50
2017,01,23,12,52,7.60
2017,01,23,12,53,7.60
2017,01,23,12,54,7.60
2017,01,23,12,55,7.70
2017,01,23,12,56,7.70
2017,01,23,12,57,7.70
2017,01,23,12,58,7.70
2017,01,23,12,59,7.60
2017,01,23,13,00,7.60
2017,01,23,13,01,7.60
2017,01,23,13,02,7.60
2017,01,23,13,03,7.60
2017,01,23,13,04,7.60
2017,01,23,13,05,7.60
2017,01,23,13,06,7.70
2017,01,23,13,07,7.70
2017,01,23,13,08,7.70
2017,01,23,13,09,7.80
2017,01,23,13,10,7.80
2017,01,23,13,11,7.80
2017,01,23,13,12,7.80
2017,01,23,13,13,7.90
2017,01,23,13,14,7.90
2017,01,23,13,15,7.90
2017,01,23,13,16,7.90
2017,01,23,13,17,7.90
2017,01,23,13,18,8.00
2017,01,23,13,19,8.00
2017,01,23,13,20,8.10
2017,01,23,13,21,8.10
2017,01,23,13,22,8.20
2017,01,23,13,23,8.10
2017,01,23,13,24,8.10
2017,01,23,13,25,8.10
2017,01,23,13,26,8.10
2017,01,23,13,27,8.10
2017,01,23,13,28,8.20
2017,01,23,13,29,8.20
2017,01,23,13,30,8.20
2017,01,23,13,31,8.20
2017,01,23,13,32,8.20
2017,01,23,13,33,8.20
2017,01,23,13,34,8.20
2017,01,23,13,35,8.20
2017,01,23,13,36,8.20
2017,01,23,13,37,8.20
2017,01,23,13,38,8.10
2017,01,23,13,39,8.10
2017,01,23,13,40,8.10
2017,01,23,13,41,8.10
2017,01,23,13,42,8.10
2017,01,23,13,43,8.20
2017,01,23,13,44,8.10
2017,01,23,13,45,8.10
2017,01,23,13,46,8.10
2017,01,23,13,47,8.10
2017,01,23,13,48,8.10
2017,01,23,13,49,8.10
2017,01,23,13,50,8.10
2017,01,23,13,51,8.20
2017,01,23,13,52,8.20
2017,01,23,13,53,8.20
2017,01,23,13,54,8.30
2017,01,23,13,55,8.30
2017,01,23,13,56,8.30
2017,01,23,13,57,8.30
2017,01,23,13,58,8.30
2017,01,23,13,59,8.30
2017,01,23,14,00,8.30
2017,01,23,14,01,8.20
2017,01,23,14,02,8.20
2017,01,23,14,03,8.10
2017,01,23,14,04,8.10
2017,01,23,14,05,8.20
2017,01,23,14,06,8.20
2017,01,23,14,07,8.20
2017,01,23,14,08,8.20
2017,01,23,14,09,8.30
2017,01,23,14,10,8.30
2017,01,23,14,11,8.30
2017,01,23,14,12,8.30
2017,01,23,14,13,8.30
2017,01,23,14,14,8.30
2017,01,23,14,15,8.20
2017,01,23,14,16,8.20
2017,01,23,14,17,8.20
2017,01,23,14,18,8.30
2017,01,23,14,19,8.30
2017,01,23,14,20,8.40
2017,01,23,14,21,8.40
2017,01,23,14,22,8.50
2017,01,23,14,23,8.50
2017,01,23,14,24,8.50
2017,01,23,14,25,8.50
2017,01,23,14,26,8.60
2017,01,23,14,27,8.60
2017,01,23,14,28,8.60
2017,01,23,14,29,8.60
2017,01,23,14,30,8.50
2017,01,23,14,31,8.50
2017,01,23,14,32,8.50
2017,01,23,14,33,8.50
2017,01,23,14,34,8.50
2017,01,23,14,35,8.50
2017,01,23,14,36,8.40
2017,01,23,14,37,8.40
2017,01,23,14,38,8.50
2017,01,23,14,39,8.50
2017,01,23,14,40,8.50
2017,01,23,14,41,8.60
2017,01,23,14,42,8.60
2017,01,23,14,43,8.60
2017,01,23,14,44,8.60
2017,01,23,14,45,8.60
2017,01,23,14,46,8.60
2017,01,23,14,47,8.70
2017,01,23,14,48,8.70
2017,01,23,14,49,8.70
2017,01,23,14,50,8.70
2017,01,23,14,51,8.60
2017,01,23,14,52,8.50
2017,01,23,14,53,8.50
2017,01,23,14,54,8.50
2017,01,23,14,55,8.50
2017,01,23,14,56,8.50
2017,01,23,14,57,8.50
2017,01,23,14,58,8.50
2017,01,23,14,59,8.50
2017,01,23,15,00,8.40
2017,01,23,15,01,8.40
2017,01,23,15,02,8.40
2017,01,23,15,03,8.40
2017,01,23,15,04,8.40
2017,01,23,15,05,8.40
2017,01,23,15,06,8.40
2017,01,23,15,07,8.50
2017,01,23,15,08,8.50
2017,01,23,15,09,8.50
2017,01,23,15,10,8.50
2017,01,23,15,11,8.40
2017,01,23,15,12,8.40
2017,01,23,15,13,8.40
2017,01,23,15,14,8.40
2017,01,23,15,15,8.40
2017,01,23,15,16,8.40
2017,01,23,15,17,8.40
2017,01,23,15,18,8.30
2017,01,23,15,19,8.30
2017,01,23,15,20,8.30
2017,01,23,15,21,8.20
2017,01,23,15,22,8.20
2017,01,23,15,23,8.20
2017,01,23,15,24,8.20
2017,01,23,15,25,8.20
2017,01,23,15,26,8.20
2017,01,23,15,27,8.20
2017,01,23,15,28,8.10
2017,01,23,15,29,8.10
2017,01,23,15,30,8.10
2017,01,23,15,31,8.10
2017,01,23,15,32,8.00
2017,01,23,15,33,8.00
2017,01,23,15,34,8.00
2017,01,23,15,35,8.00
2017,01,23,15,36,8.00
2017,01,23,15,37,7.90
2017,01,23,15,38,7.90
2017,01,23,15,39,7.90
2017,01,23,15,40,7.90
2017,01,23,15,41,7.90
2017,01,23,15,42,7.80
2017,01,23,15,43,7.80
2017,01,23,15,44,7.80
2017,01,23,15,45,7.70
2017,01,23,15,46,7.70
2017,01,23,15,47,7.70
2017,01,23,15,48,7.70
2017,01,23,15,49,7.70
2017,01,23,15,50,7.70
2017,01,23,15,51,7.60
2017,01,23,15,52,7.60
2017,01,23,15,53,7.50
2017,01,23,15,54,7.50
2017,01,23,15,55,7.50
2017,01,23,15,56,7.40
2017,01,23,15,57,7.40
2017,01,23,15,58,7.40
2017,01,23,15,59,7.40
2017,01,23,16,00,7.40
2017,01,23,16,01,7.30
2017,01,23,16,02,7.30
2017,01,23,16,03,7.30
2017,01,23,16,04,7.30
2017,01,23,16,05,7.20
2017,01,23,16,06,7.20
2017,01,23,16,07,7.10
2017,01,23,16,08,7.10
2017,01,23,16,09,7.00
2017,01,23,16,10,7.00
2017,01,23,16,11,6.90
2017,01,23,16,12,6.80
2017,01,23,16,13,6.80
2017,01,23,16,14,6.70
2017,01,23,16,15,6.70
2017,01,23,16,16,6.60
2017,01,23,16,17,6.60
2017,01,23,16,18,6.50
2017,01,23,16,19,6.50
2017,01,23,16,20,6.40
2017,01,23,16,21,6.40
2017,01,23,16,22,6.30
2017,01,23,16,23,6.30
2017,01,23,16,24,6.30
2017,01,23,16,25,6.20
2017,01,23,16,26,6.20
2017,01,23,16,27,6.20
2017,01,23,16,28,6.10
2017,01,23,16,29,6.10
2017,01,23,16,30,6.10
2017,01,23,16,31,6.00
2017,01,23,16,32,6.00
2017,01,23,16,33,6.00
2017,01,23,16,34,5.90
2017,01,23,16,35,5.90
2017,01,23,16,36,5.90
2017,01,23,16,37,5.80
2017,01,23,16,38,5.80
2017,01,23,16,39,5.80
2017,01,23,16,40,5.80
2017,01,23,16,41,5.80
2017,01,23,16,42,5.70
2017,01,23,16,43,5.70
2017,01,23,16,44,5.70
2017,01,23,16,45,5.70
2017,01,23,16,46,5.70
2017,01,23,16,47,5.70
2017,01,23,16,48,5.60
2017,01,23,16,49,5.60
2017,01,23,16,50,5.60
2017,01,23,16,51,5.60
2017,01,23,16,52,5.60
2017,01,23,16,53,5.50
2017,01,23,16,54,5.50
2017,01,23,16,55,5.50
2017,01,23,16,56,5.50
2017,01,23,16,57,5.40
2017,01,23,16,58,5.40
2017,01,23,16,59,5.40
2017,01,23,17,00,5.40
2017,01,23,17,01,5.40
2017,01,23,17,02,5.40
2017,01,23,17,03,5.40
2017,01,23,17,04,5.40
2017,01,23,17,05,5.30
2017,01,23,17,06,5.30
2017,01,23,17,07,5.30
2017,01,23,17,08,5.30
2017,01,23,17,09,5.30
2017,01,23,17,10,5.30
2017,01,23,17,11,5.20
2017,01,23,17,12,5.20
2017,01,23,17,13,5.20
2017,01,23,17,14,5.20
2017,01,23,17,15,5.20
2017,01,23,17,16,5.10
2017,01,23,17,17,5.10
2017,01,23,17,18,5.10
2017,01,23,17,19,5.10
2017,01,23,17,20,5.00
2017,01,23,17,21,5.00
2017,01,23,17,22,4.90
2017,01,23,17,23,4.90
2017,01,23,17,24,4.90
2017,01,23,17,25,4.90
2017,01,23,17,26,4.90
2017,01,23,17,27,4.80
2017,01,23,17,28,4.80
2017,01,23,17,29,4.80
2017,01,23,17,30,4.80
2017,01,23,17,31,4.80
2017,01,23,17,32,4.80
2017,01,23,17,33,4.70
2017,01,23,17,34,4.70
2017,01,23,17,35,4.70
2017,01,23,17,36,4.70
2017,01,23,17,37,4.70
2017,01,23,17,38,4.60
2017,01,23,17,39,4.60
2017,01,23,17,40,4.60
2017,01,23,17,41,4.60
2017,01,23,17,42,4.50
2017,01,23,17,43,4.50
2017,01,23,17,44,4.40
2017,01,23,17,45,4.40
2017,01,23,17,46,4.40
2017,01,23,17,47,4.40
2017,01,23,17,48,4.30
2017,01,23,17,49,4.30
2017,01,23,17,50,4.30
2017,01,23,17,51,4.30
2017,01,23,17,52,4.30
2017,01,23,17,53,4.20
2017,01,23,17,54,4.20
2017,01,23,17,55,4.20
2017,01,23,17,56,4.20
2017,01,23,17,57,4.20
2017,01,23,17,58,4.20
2017,01,23,17,59,4.10
2017,01,23,18,00,4.10
2017,01,23,18,01,4.10
2017,01,23,18,02,4.10
2017,01,23,18,03,4.00
2017,01,23,18,04,4.00
2017,01,23,18,05,4.00
2017,01,23,18,06,4.00